Location: Solon
(41.3849°N, 81.4081°W)
Time: 12:06:47
(UTC-04:00)

CZ-2C R/B - Visible Passes

Search period start: 28 May 2015 00:00
Search period end: 07 June 2015 00:00
Orbit: 705 x 908 km, 98.1° (Epoch: 27 May)

Date Brightness Start Highest point End Pass type
(mag) Time Alt. Az. Time Alt. Az. Time Alt. Az.
28 May 5.8 01:41:14 10° ENE 01:43:07 12° ENE 01:45:18 10° NE visible
28 May 3.3 03:19:13 29° SSE 03:22:05 79° ENE 03:27:48 10° N visible
28 May 5.0 05:00:17 11° WSW 05:02:49 14° W 05:05:22 10° WNW visible
29 May 4.0 02:54:13 22° SE 02:57:32 49° ENE 03:03:02 10° N visible
29 May 4.5 04:35:17 18° SW 04:37:45 23° W 04:42:06 10° NW visible
30 May 4.8 02:29:13 14° ESE 02:33:04 31° ENE 02:38:04 10° N visible
30 May 3.8 04:10:17 25° SW 04:12:50 38° W 04:18:06 10° NNW visible
31 May 5.4 02:04:50 10° ESE 02:08:41 20° ENE 02:12:49 10° NNE visible
31 May 3.3 03:45:18 30° S 03:48:04 62° W 03:53:46 10° NNW visible
01 Jun 5.8 01:42:08 10° E 01:44:23 13° ENE 01:46:58 10° NNE visible
01 Jun 3.3 03:20:18 28° SSE 03:23:24 82° ENE 03:29:12 10° N visible
01 Jun 5.0 05:01:23 10° WSW 05:04:09 13° W 05:06:38 10° WNW visible
02 Jun 4.0 02:55:19 21° SE 02:58:51 51° ENE 03:04:27 10° N visible
02 Jun 4.5 04:36:23 16° SW 04:39:06 22° W 04:43:26 10° NW visible
03 Jun 4.7 02:30:20 14° ESE 02:34:22 33° ENE 02:39:30 10° N visible
03 Jun 3.9 04:11:25 23° SW 04:14:11 36° W 04:19:27 10° NNW visible
04 Jun 5.4 02:05:56 10° ESE 02:09:59 21° ENE 02:14:17 10° NNE visible
04 Jun 3.3 03:46:26 28° S 03:49:23 60° W 03:55:08 10° NNW visible
05 Jun 5.8 01:43:05 10° E 01:45:40 14° ENE 01:48:34 10° NNE visible
05 Jun 3.3 03:21:28 27° SSE 03:24:44 86° ENE 03:30:35 10° NNW visible
05 Jun 5.1 05:02:48 10° WSW 05:05:30 13° W 05:07:51 10° WNW visible
06 Jun 3.9 02:56:30 21° SE 03:00:10 54° ENE 03:05:50 10° N visible
06 Jun 4.6 04:37:34 16° SW 04:40:26 22° W 04:44:44 10° NW visible
